Please be sure to check the latest weather conditions by clicking the link and viewing our local weather information!

Check Weather

Welcome to Lakeway Airpark (3R9)

FromTheAir

We’re a community airpark nestled within the town of Lakeway, Texas (17 miles northwest of downtown Austin).

Lakeway Airpark, Inc. was formed by Lakeway residents and interested parties to own and manage Lakeway Airpark (3R9).

The Airpark is a privately owned not for profit public use airport for residents and guests of Lakeway. No public funds are used and the airport is supported by fees and fuel sales at the airport.

Lakeway Airpark is an unmanned facility open for use from Sunrise to Sunset seven days a week. Takeoffs and landings are not permitted at night, between Sunset and Sunrise, by City Ordinance.

Quick Weather Info

Available data for KAUS from the past 2 hours
AUSTIN, TX
Metar
KAUS 192353Z 06010KT 10SM FEW150 FEW200 SCT300 22/03 A3021 RMK AO2 SLP225 T02170033 10250 20217 58007

23:53 UTC

Wind: 60° 10kt

Visibility: 10 SM

Sky: FEW 15000 ft

Temp: 22 deg C / 71.6 deg F

Dewpoint: 3 deg C / 37.4 deg F

Pressure: 30.21 inHg

TAF
KAUS 192335Z 2000/2106 05012KT P6SM SCT250 FM200300 04006KT P6SM BKN200 FM201400 08012KT P6SM BKN060 FM202100 14013KT P6SM SCT060 FM210500 14008KT P6SM BKN020